Regional Weather Roundup
Issued by NWS

Home | Current Version | Previous Version | Graphics & Text | Print | Product List | Glossary On
Versions: 1 2 3 4 5 6 7 8 9 10 11 12 13 14 15 16 17 18 19 20 21 22 23 24 25 26 27 28 29 30 31 32 33 34 35 36 37 38 39 40 41 42 43 44 45 46 47 48 49 50
000
ASUS43 KLOT 020608
RWRIL

ILLINOIS REGIONAL WEATHER ROUNDUP
NATIONAL WEATHER SERVICE CHICAGO/ROMEOVILLE IL
100 AM CDT TUE JUN 02 2015

NOTE: "FAIR" INDICATES FEW OR NO CLOUDS BELOW 12,000 FEET WITH NO
SIGNIFICANT WEATHER AND/OR OBSTRUCTIONS TO VISIBILITY.

* THESE STATIONS ARE NOT UNDER NWS QUALITY CONTROL. THEY ALSO MAY NOT
  REPORT WEATHER SUCH AS PRECIPITATION OR FOG.

ILZ001-002-007-009-015-016-024-020700-
NORTHWEST ILLINOIS

CITY           SKY/WX    TMP DP  RH WIND       PRES   REMARKS
MOLINE         CLEAR     54  46  74 E7        30.15F
6HR MIN TEMP:  54; 6HR MAX TEMP:  68;

STERLING*      CLEAR     48  41  76 E6        30.17F
SAVANNA*       CLEAR     51  41  68 E5        30.17F
$$

ILZ003-004-008-010-011-017-018-020700-
NORTH CENTRAL ILLINOIS

CITY           SKY/WX    TMP DP  RH WIND       PRES   REMARKS
ROCKFORD       PTCLDY    49  36  61 E5        30.21F
6HR MIN TEMP:  49; 6HR MAX TEMP:  63;

FREEPORT*      CLEAR     46  39  76 E7        30.20F
ROCHELLE*      CLEAR     47  38  71 E7        30.18F
DE KALB*       CLEAR     44  37  75 NE5       30.19F
PERU*          CLEAR     51  39  64 E7        30.17F
$$

ILZ005-006-012>014-019>023-020700-
NORTHEAST ILLINOIS

CITY           SKY/WX    TMP DP  RH WIND       PRES   REMARKS
CHICAGO-OHARE  CLEAR     46  37  71 N5        30.19F
6HR MIN TEMP:  44; 6HR MAX TEMP:  56;

CHICAGO-MIDWAY CLEAR     49  38  65 NW5       30.19S
6HR MIN TEMP:  49; 6HR MAX TEMP:  58;

AURORA         CLEAR     48  35  60 CALM      30.18F
6HR MIN TEMP:  48; 6HR MAX TEMP:  62;

LANSING*       CLEAR     45  39  79 CALM      30.18F
JOLIET*        CLEAR     47  40  74 CALM      30.18F
WAUKEGAN       CLEAR     40  38  93 CALM      30.19F
6HR MIN TEMP:  40; 6HR MAX TEMP:  52;

DUPAGE AIRPORT CLEAR     43  36  76 N5        30.18F
6HR MIN TEMP:  43; 6HR MAX TEMP:  59;

KANKAKEE*      CLEAR     46  41  83 NE5       30.18F
WHEELING       CLEAR     45  38  76 CALM      30.21F
6HR MIN TEMP:  44; 6HR MAX TEMP:  54;

MORRIS*        CLEAR     47  38  71 CALM      30.14F
ROMEOVILLE*    CLEAR     44  38  77 NE5       30.18F
NORTHERLY ISL    N/A     48  39  71 MISG        N/A
$$

LMZ740>746-020700-
SOUTHERN LAKE MICHIGAN

STATION/POSITION SKY/WX   TEMP    WIND        PRES    VSBY  WAVE
                          AIR SEA DIR/SP/G                  HT/PER
                          (F)     (DEG/KT/KT) (MB)    (MI)  (FT/S)
SOUTHERN BUOY              42 38   40/  8/  8 1023.0F         1/ 4
HARRISON CRIB              49     350/  6/  8   N/A
BURNHAM HARBOR             49      10/  4/  6   N/A
CALUMET HARBOR             48     360/  2/  4   N/A
BURNS HARBOR                      340/  4/ 23 1023.0F
MICHIGAN CITY              50     340/  3/  3   N/A
MICHIGAN CITY 6N           48 56   20/  2/  4   N/A           2/ 5
ST. JOSEPH                 55 55  140/  8/ 10   N/A           2/ 4
$$

ILZ025>027-034>036-040-047-049-050-058-095>099-020700-
WEST-CENTRAL ILLINOIS

CITY           SKY/WX    TMP DP  RH WIND       PRES   REMARKS
QUINCY         CLEAR     56  53  90 NE3       30.13F
GALESBURG*     CLEAR     54  52  92 CALM      30.15F
MACOMB*        CLEAR     53  52  97 CALM      30.17S
JACKSONVILLE*  CLEAR     55  53  91 E6        30.13F
PITTSFIELD*    CLEAR     56  53  89 CALM      30.14F
$$

ILZ028>032-037-038-041>044-048-051>054-059>061-020700-
CENTRAL ILLINOIS

CITY           SKY/WX    TMP DP  RH WIND       PRES   REMARKS
PONTIAC        CLEAR     50  43  77 E8        30.18F
BLOOMINGTON    PTCLDY    51  47  86 NE9       30.17F
DECATUR        CLOUDY    56  54  93 NE5       30.14F
PEORIA         CLEAR     56  49  77 E13       30.16S
6HR MIN TEMP:  54; 6HR MAX TEMP:  67;

LACON*         CLEAR     51  43  72 E6        30.16F
LINCOLN*       PTCLDY    55  52  89 NE3       30.14F
SPRINGFIELD    CLEAR     55  51  86 E5        30.14F
6HR MIN TEMP:  55; 6HR MAX TEMP:  67;

TAYLORVILLE    CLEAR     54  54 100 NE3       30.14S
$$

ILZ033-039-045-046-055>057-062-063-020700-
EAST-CENTRAL ILLINOIS

CITY           SKY/WX    TMP DP  RH WIND       PRES   REMARKS
CHAMPAIGN      MOCLDY    57  53  86 NE6       30.16S
DANVILLE*      CLEAR     54  51  92 NE5       30.14F
RANTOUL*       CLOUDY    56  49  75 NE9       30.16F
MATTOON        CLEAR     54  51  90 E3        30.14S
PARIS*         CLEAR     54  52  93 NE5       30.16S
$$

ILZ079-100>102-020700-
SOUTHWEST ILLINOIS

CITY           SKY/WX    TMP DP  RH WIND       PRES   REMARKS
ALTON          CLOUDY    61  61 100 NE3       30.12S
BELLEVILLE     MOCLDY    60  60  99 E3        30.11F
CAHOKIA*       CLOUDY    61  57  87 E5        30.11F
SPARTA*        CLOUDY    59  55  88 E3        30.13S
$$

ILZ064>066-069>071-074>076-080>082-084>086-088>090-092>094-020700-
SOUTH-CENTRAL ILLINOIS

CITY           SKY/WX    TMP DP  RH WIND       PRES   REMARKS
CARBONDALE     CLOUDY    59  54  83 NE3       30.11F
6HR MIN TEMP:  59; 6HR MAX TEMP:  62;

CAIRO*         CLOUDY    60  57  89 N3        30.10F
EFFINGHAM*     PTCLDY    54  51  92 CALM      30.15F FOG
MARION         CLOUDY    61  55  82 NE6       30.12S
MT. VERNON     CLOUDY    59  52  77 CALM      30.13F
CENTRALIA*     CLOUDY    59  55  85 CALM      30.12F
SALEM*         CLOUDY    61  57  86 CALM      30.13F
$$

ILZ067-068-072-073-078-083-087-091-020700-
SOUTHEAST ILLINOIS

CITY           SKY/WX    TMP DP  RH WIND       PRES   REMARKS
LAWRENCEVILLE  CLOUDY    59  52  77 E8        30.13F
FLORA*         PTCLDY    59  55  85 CALM      30.13F
FAIRFIELD*     CLOUDY    60  55  82 NE6       30.11F
HARRISBURG*    CLOUDY    59  56  88 NE5       30.12F
ROBINSON*      CLOUDY    58  53  81 E7        30.14F
CARMI*         CLOUDY    61  52  72 NE6       30.11F
$$

ABBREVIATIONS USED IN REMARKS
   TC - TEMPERATURE IN CELSIUS
  WCI - WIND CHILL INDEX
   HX - HEAT INDEX
  VSB - VISIBILITY
$$




USA.gov is the U.S. government's official web portal to all federal, state and local government web resources and services.